GW5140 Weather Reports


time (UTC)temp
C
wind
direction
speed
KPH
gust
KPH
rain 1hr
cm
rain 24hr
cm
rain mn
cm
humidity
%
barometer
mb
20260504035125 6 133 0.0 0.0 0.00 0.00 0.00 80 1017.8
20260504034624 6 133 0.0 0.0 0.00 0.00 0.00 79 1017.6
20260504034120 6 133 0.0 0.0 0.00 0.00 0.00 79 1017.9
20260504033618 6 133 0.0 0.0 0.00 0.00 0.00 78 1017.8
20260504033115 6 133 0.0 0.0 0.00 0.00 0.00 76 1018.0
20260504032612 5 134 0.0 0.0 0.00 0.00 0.00 76 1017.9
20260504032109 5 111 0.0 0.0 0.00 0.00 0.00 78 1017.9
20260504031606 5 79 0.0 0.0 0.00 0.00 0.00 79 1017.9
20260504031102 5 64 0.0 0.0 0.00 0.00 0.00 77 1018.0
20260504030559 5 11 0.0 0.0 0.00 0.00 0.00 80 1018.0
20260504030055 5 70 0.0 0.0 0.00 0.00 0.00 83 1018.0
20260504025553 5 40 0.0 0.0 0.00 0.00 0.00 83 1018.2
20260504025049 5 104 0.0 0.0 0.00 0.00 0.00 82 1018.0
20260504024547 5 103 0.0 0.0 0.00 0.00 0.00 82 1018.1
20260504024043 5 101 0.0 0.0 0.00 0.00 0.00 83 1018.1
20260504023540 5 109 0.0 0.0 0.00 0.00 0.00 82 1018.2
20260504023036 5 106 0.0 0.0 0.00 0.00 0.00 82 1018.0
20260504022532 5 91 0.0 0.0 0.00 0.00 0.00 81 1018.2
20260504022028 6 99 0.0 0.0 0.00 0.00 0.00 81 1018.0
20260504021526 6 78 0.0 0.0 0.00 0.00 0.00 81 1017.9
20260504021022 6 101 0.0 0.0 0.00 0.00 0.00 81 1018.1
20260504020519 6 99 0.0 0.0 0.00 0.00 0.00 81 1018.0
20260504020016 6 97 0.0 0.0 0.00 0.00 0.00 80 1017.9
20260504015513 6 108 0.0 0.0 0.00 0.00 0.00 80 1017.8
20260504015008 6 115 0.0 0.0 0.00 0.00 0.00 80 1017.7
20260504014504 7 112 0.0 0.0 0.00 0.00 0.00 79 1018.0
20260504014002 7 99 0.0 0.0 0.00 0.00 0.00 78 1018.0
20260504013500 7 102 0.0 0.0 0.00 0.00 0.00 78 1017.9
20260504012955 7 94 0.0 0.0 0.00 0.00 0.00 77 1018.1
20260504012454 7 75 0.0 0.0 0.00 0.00 0.00 75 1018.0
20260504011951 7 121 0.0 0.0 0.00 0.00 0.00 76 1017.7
20260504011447 8 107 0.0 0.0 0.00 0.00 0.00 76 1017.8
20260504010943 8 94 0.0 0.0 0.00 0.00 0.00 75 1018.0
20260504010439 8 100 0.0 0.0 0.00 0.00 0.00 73 1017.9
20260504005936 8 66 0.0 0.0 0.00 0.00 0.00 71 1017.8
20260504005433 9 120 0.0 0.0 0.00 0.00 0.00 71 1017.9
20260504004930 9 114 0.0 0.0 0.00 0.00 0.00 70 1017.7
20260504004428 9 358 0.0 3.2 0.00 0.00 0.00 67 1018.0
20260504003925 9 170 0.0 0.0 0.00 0.00 0.00 65 1017.7
20260504003421 10 90 0.0 0.0 0.00 0.00 0.00 68 1017.8
20260504002918 10 355 1.6 3.2 0.00 0.00 0.00 60 1017.7
20260504002415 10 2 1.6 1.6 0.00 0.00 0.00 65 1017.6
20260504001912 11 309 1.6 3.2 0.00 0.00 0.00 60 1017.7
20260504001410 11 337 3.2 3.2 0.00 0.00 0.00 55 1017.7
20260504000906 11 341 0.0 1.6 0.00 0.00 0.00 55 1017.7
20260504000403 12 350 1.6 4.8 0.00 0.00 0.00 53 1017.7
20260503235900 12 22 0.0 1.6 0.00 0.00 0.00 52 1017.6
20260503235358 13 161 0.0 4.8 0.00 0.00 0.00 37 1017.6
20260503234855 13 134 1.6 3.2 0.00 0.00 0.00 41 1017.7
20260503234353 13 139 0.0 1.6 0.00 0.00 0.00 42 1017.5
20260503233850 13 124 3.2 4.8 0.00 0.00 0.00 37 1017.6
20260503233347 13 276 4.8 9.7 0.00 0.00 0.00 36 1017.7
20260503232843 13 148 3.2 12.9 0.00 0.00 0.00 36 1017.6
20260503232341 13 69 0.0 0.0 0.00 0.00 0.00 36 1017.6
20260503231839 13 135 4.8 6.4 0.00 0.00 0.00 39 1017.6
20260503231335 13 121 1.6 4.8 0.00 0.00 0.00 37 1017.6
20260503230831 13 108 3.2 3.2 0.00 0.00 0.00 37 1017.8
20260503230329 14 85 0.0 1.6 0.00 0.00 0.00 44 1017.7
20260503225826 14 5 1.6 3.2 0.00 0.00 0.00 35 1017.6
20260503225322 14 357 1.6 11.3 0.00 0.00 0.00 35 1017.7
20260503224818 15 37 3.2 6.4 0.00 0.00 0.00 35 1017.6
20260503224316 15 293 0.0 4.8 0.00 0.00 0.00 33 1017.8
20260503223813 15 39 3.2 6.4 0.00 0.00 0.00 33 1017.9
20260503223311 15 40 8.0 14.5 0.00 0.00 0.00 33 1017.9
20260503222806 15 132 0.0 12.9 0.00 0.00 0.00 33 1017.9
20260503222305 15 3 3.2 27.4 0.00 0.00 0.00 39 1018.0
20260503221803 15 280 1.6 14.5 0.00 0.00 0.00 34 1018.0
20260503221301 16 348 1.6 4.8 0.00 0.00 0.00 31 1018.0
20260503220757 15 275 6.4 9.7 0.00 0.00 0.00 33 1018.0
20260503220254 15 210 6.4 9.7 0.00 0.00 0.00 33 1018.1
20260503215750 15 218 1.6 12.9 0.00 0.00 0.00 36 1017.9
20260503215248 16 56 3.2 4.8 0.00 0.00 0.00 36 1018.2
20260503214746 16 4 9.7 14.5 0.00 0.00 0.00 34 1018.0
20260503214242 16 286 3.2 6.4 0.00 0.00 0.00 31 1018.0
20260503213740 15 186 3.2 12.9 0.00 0.00 0.00 32 1017.9
20260503213237 15 48 6.4 14.5 0.00 0.00 0.00 32 1018.0
20260503212734 16 282 0.0 11.3 0.00 0.00 0.00 34 1018.0
20260503212232 15 288 6.4 17.7 0.00 0.00 0.00 32 1018.0
20260503211729 15 129 8.0 16.1 0.00 0.00 0.00 34 1018.1
20260503211225 15 345 3.2 9.7 0.00 0.00 0.00 34 1018.1
20260503210721 15 136 8.0 16.1 0.00 0.00 0.00 34 1018.1
20260503210219 15 121 11.3 29.0 0.00 0.00 0.00 36 1018.2
20260503205714 15 276 3.2 6.4 0.00 0.00 0.00 31 1017.9
20260503205210 15 114 3.2 11.3 0.00 0.00 0.00 35 1018.0
20260503204706 15 168 1.6 17.7 0.00 0.00 0.00 36 1018.2
20260503204204 15 109 1.6 6.4 0.00 0.00 0.00 34 1018.3
20260503203701 14 335 4.8 6.4 0.00 0.00 0.00 39 1018.3
20260503203159 15 79 0.0 6.4 0.00 0.00 0.00 38 1018.7
20260503202655 14 116 12.9 16.1 0.00 0.00 0.00 36 1018.7
20260503202154 13 117 6.4 12.9 0.00 0.00 0.00 35 1019.0
20260503201652 14 172 6.4 14.5 0.00 0.00 0.00 34 1018.9
20260503201149 14 85 6.4 16.1 0.00 0.00 0.00 33 1019.0
20260503200644 15 67 3.2 9.7 0.00 0.00 0.00 35 1018.8
20260503200141 13 158 11.3 16.1 0.00 0.00 0.00 37 1019.0
20260503195638 15 123 6.4 12.9 0.00 0.00 0.00 37 1019.1
20260503195135 14 121 4.8 12.9 0.00 0.00 0.00 34 1019.1
20260503194632 15 224 6.4 17.7 0.00 0.00 0.00 34 1019.2
20260503194127 14 164 3.2 9.7 0.00 0.00 0.00 36 1019.5
20260503193625 15 103 0.0 3.2 0.00 0.00 0.00 34 1019.4
20260503193120 13 226 0.0 3.2 0.00 0.00 0.00 38 1019.3
20260503192616 13 259 1.6 3.2 0.00 0.00 0.00 39 1019.7
20260503192112 13 119 8.0 12.9 0.00 0.00 0.00 38 1019.8
20260503191609 14 144 11.3 17.7 0.00 0.00 0.00 37 1019.7
20260503191106 14 211 8.0 11.3 0.00 0.00 0.00 35 1019.8
20260503190603 14 348 3.2 9.7 0.00 0.00 0.00 44 1019.8
20260503190100 15 200 8.0 12.9 0.00 0.00 0.00 35 1020.2
20260503185556 13 133 1.6 4.8 0.00 0.00 0.00 36 1019.7
20260503185056 14 8 6.4 20.9 0.00 0.00 0.00 36 1020.0
20260503184552 13 327 4.8 6.4 0.00 0.00 0.00 39 1019.8
20260503184049 13 331 1.6 6.4 0.00 0.00 0.00 37 1020.0
20260503183545 13 65 1.6 12.9 0.00 0.00 0.00 39 1019.9
20260503183043 14 154 4.8 11.3 0.00 0.00 0.00 37 1020.0
20260503182541 13 119 16.1 17.7 0.00 0.00 0.00 42 1020.0
20260503182039 13 234 1.6 12.9 0.00 0.00 0.00 35 1020.1
20260503181535 13 26 4.8 16.1 0.00 0.00 0.00 41 1020.4
20260503181032 13 344 3.2 17.7 0.00 0.00 0.00 43 1020.4
20260503180529 13 137 12.9 17.7 0.00 0.00 0.00 39 1020.6
20260503180026 13 150 14.5 29.0 0.00 0.00 0.00 43 1020.3
20260503175524 13 173 14.5 22.5 0.00 0.00 0.00 41 1020.2
20260503175020 13 299 0.0 6.4 0.00 0.00 0.00 36 1020.3
20260503174518 13 206 3.2 4.8 0.00 0.00 0.00 48 1020.5
20260503174014 12 187 4.8 16.1 0.00 0.00 0.00 39 1020.5
20260503173509 13 171 1.6 4.8 0.00 0.00 0.00 37 1020.7
20260503173006 12 135 3.2 6.4 0.00 0.00 0.00 38 1020.8
20260503172504 12 188 11.3 17.7 0.00 0.00 0.00 39 1020.6
20260503172001 12 15 4.8 12.9 0.00 0.00 0.00 38 1020.9
20260503171457 12 154 4.8 14.5 0.00 0.00 0.00 36 1020.8
20260503170954 12 89 3.2 11.3 0.00 0.00 0.00 39 1021.0
20260503170450 12 64 0.0 9.7 0.00 0.00 0.00 38 1021.0
20260503150843 10 75 1.6 14.5 0.00 0.00 0.00 44 1022.2
20260503150339 10 290 3.2 16.1 0.00 0.00 0.00 48 1021.9
20260503140303 8 5 9.7 20.9 0.00 0.00 0.00 55 1022.5
20260503131232 7 202 8.0 12.9 0.00 0.00 0.00 65 1022.6
20260503130730 7 157 1.6 3.2 0.00 0.00 0.00 66 1022.3
20260503130227 6 109 4.8 6.4 0.00 0.00 0.00 68 1022.5
20260503120153 0 8 0.0 0.0 0.00 0.00 0.00 93 1022.1
20260503110621 0 8 0.0 0.0 0.00 0.00 0.00 93 1021.5
20260503110118 0 8 0.0 0.0 0.00 0.00 0.00 93 1021.5
20260503090508 0 352 0.0 0.0 0.00 0.00 0.00 93 1020.6
20260503081434 -1 352 0.0 0.0 0.00 0.00 0.00 92 1020.5
20260503080931 -1 352 0.0 0.0 0.00 0.00 0.00 92 1020.6
20260503080427 -1 352 0.0 0.0 0.00 0.00 0.00 92 1020.5
20260503072904 0 352 0.0 0.0 0.00 0.00 0.00 91 1020.1
20260503072401 0 352 0.0 0.0 0.00 0.00 0.00 91 1020.1
20260503071857 0 352 0.0 0.0 0.00 0.00 0.00 91 1020.2
20260503071355 0 352 0.0 0.0 0.00 0.00 0.00 91 1020.0
20260503070851 0 352 0.0 0.0 0.00 0.00 0.00 91 1020.1
20260503070349 0 352 0.0 0.0 0.00 0.00 0.00 91 1019.9
20260503060314 0 348 0.0 0.0 0.00 0.00 0.00 89 1020.2
20260503054801 0 352 0.0 0.0 0.00 0.00 0.00 88 1020.1
20260503054257 1 351 0.0 0.0 0.00 0.00 0.00 88 1020.2
20260503053755 1 348 0.0 0.0 0.00 0.00 0.00 88 1020.2
20260503053249 1 348 0.0 0.0 0.00 0.00 0.00 87 1020.1
20260503052744 1 346 0.0 0.0 0.00 0.00 0.00 87 1020.1
20260503052241 1 348 0.0 0.0 0.00 0.00 0.00 86 1020.3
20260503051735 1 346 0.0 0.0 0.00 0.00 0.00 86 1020.0
20260503051234 1 351 0.0 0.0 0.00 0.00 0.00 86 1020.1
20260503050730 1 349 0.0 0.0 0.00 0.00 0.00 86 1020.1
20260503050226 2 348 0.0 0.0 0.00 0.00 0.00 85 1020.1
20260503045724 2 350 0.0 0.0 0.00 0.00 0.00 85 1020.1
20260503045222 2 351 0.0 0.0 0.00 0.00 0.00 85 1020.2
20260503044718 2 351 0.0 0.0 0.00 0.00 0.00 85 1020.0
20260503044215 2 351 0.0 0.0 0.00 0.00 0.00 85 1020.0
20260503043712 2 349 0.0 0.0 0.00 0.00 0.00 85 1020.0
20260503043210 2 345 0.0 0.0 0.00 0.00 0.00 85 1020.1
20260503042705 2 345 0.0 0.0 0.00 0.00 0.00 84 1020.1
20260503042202 2 344 0.0 0.0 0.00 0.00 0.00 83 1020.0
20260503041658 3 346 0.0 0.0 0.00 0.00 0.00 83 1020.1
20260503041156 3 345 0.0 0.0 0.00 0.00 0.00 82 1020.1
20260503040653 3 346 0.0 0.0 0.00 0.00 0.00 82 1020.0
20260503040151 3 349 0.0 0.0 0.00 0.00 0.00 82 1020.1
20260503035647 3 348 0.0 0.0 0.00 0.00 0.00 81 1020.2